Location: Clyde
(45.1830°S, 169.3170°E)
Time: 13:37:48
(UTC+13:00)

Lacrosse 5 - Pass Details

Date: 24 January 2019
Orbit: 713 x 725 km, 57.0° (Epoch: 17 February)

Event Time Altitude Azimuth Distance (km) Brightness Sun altitude
Rises 22:50:23 0° 239° (WSW) 3,169 6.8 -13.2°
Reaches altitude 10° 22:53:17 10° 255° (WSW) 2,238 5.4 -13.5°
Maximum altitude 22:57:04 21° 302° (WNW) 1,613 3.8 -14.0°
Drops below altitude 10° 23:00:48 10° 349° (N) 2,213 4.0 -14.4°
Enters shadow 23:01:11 - 352° (N) 2,318 4.1 -14.5°
